{"data":{"norad_id":50815,"intl_designator":"2022-001N","name":"STARLINK-3234","alt_names":[],"object_type":"PAYLOAD","status":"ACTIVE","operator":null,"country":"US","launch_date":"2022-01-06","launch_site_code":"AFETR","launch_vehicle":null,"mission":null,"orbit_class":"UNKNOWN","rcs_meters":null,"size_class":null,"mass_kg":null,"dimensions":null,"purposes":["comms"],"wikipedia_slug":null,"has_3d_model":false,"image_url":null,"decayed_at":null,"tle_current":{"epoch":"2026-09-19T15:37:18.454656Z","epoch_age_seconds":121722,"freshness":"FRESH","line1":"1 50815U 22001N   26262.65090804  .00000150  00000+0  16587-4 0  9990","line2":"2 50815  53.1612   7.7503 0001142  88.6410 271.4723 15.31704956259830","mean_motion":15.31704956,"eccentricity":0.0001142,"inclination_deg":53.1612,"raan_deg":7.7503,"arg_perigee_deg":88.641,"mean_anomaly_deg":271.4723,"bstar":1.6587e-5,"rev_number":25983,"period_min":94.01288377107,"perigee_km":469.94308162165,"apogee_km":471.50736175309,"semimajor_km":6848.8622216874,"source":"CELESTRAK","updated_at":"2026-09-20T09:00:39.576856Z"}}}